KUIPER-00549

导读

KUIPER-00549(NORAD编号69616)是亚马逊柯伊伯(Project Kuiper)低轨通信星座的成员卫星。该星座计划部署3232颗低轨卫星,目标为全球偏远地区、航空航海等场景提供高速低延迟互联网接入服务,目前处于组网建设阶段。 该卫星大概率属于2025年9月26日ULA Atlas V火箭执行的柯伊伯项目第五次发射批次,此批次共发射27颗卫星,初始部署高度465公里,后续将提升至预定工作轨道。截至2026年6月,柯伊伯星座在轨卫星已达129颗,亚马逊正推进组网进度以满足FCC要求的2026年7月前完成半数星座部署的监管期限。

Basic Information
目录编号:
69616
目录名称:
KUIPER-00549
国际标识:
2026-140AA
轨道中心:
EARTH
卫星名称:
KUIPER-00549
卫星全名:
KUIPER-00549
卫星状态:
在轨 (已飞行70 天)
发射日期:
2026-06-17 UTC
国别 :
美国 (US)
星等 :
--
Orbit Information
数据来源 国际轨道数据
星历时间: 2026-08-26T06:41:03+0800
12小时前
查看轨道信息
半长轴: 6830.861km
偏心率: 0.0007287
轨道倾角: 51.878°
近地点辐角 165.239°
升交点赤经 61.524°
平近点角 194.881°
近地点: 447.746km
远地点: 457.702km
周期: 93.642分钟
每日圈数: 15.377639
Detailed Information
使用方式:
暂无
2D Orbit Map
3D Orbit Map
Orbit Altitude Analysis Chart
Orbit Inclination Analysis Chart
Orbit Comprehensive Analysis Chart
View Comprehensive Chart